Météo par heure à Biskra

Ce jour, 1 Octobre, Jeudi

Heure Température Précipitation Vent Pression Humidité
00:00 +31°C° 0 mm 2 m/s 748 mmHg 31%
01:00 +30°C° 0 mm 2 m/s 748 mmHg 31%
02:00 +30°C° 0 mm 2 m/s 747 mmHg 32%
03:00 +30°C° 0 mm 1 m/s 747 mmHg 32%
04:00 +30°C° 0 mm 2 m/s 747 mmHg 33%
05:00 +29°C° 0 mm 2 m/s 747 mmHg 33%
06:00 +29°C° 0 mm 2 m/s 748 mmHg 34%
07:00 +31°C° 0 mm 3 m/s 748 mmHg 32%
08:00 +33°C° 0 mm 4 m/s 748 mmHg 30%
09:00 +34°C° 0 mm 4 m/s 748 mmHg 29%
10:00 +35°C° 0 mm 4 m/s 748 mmHg 27%
11:00 +36°C° 0 mm 3 m/s 747 mmHg 25%
12:00 +37°C° 0 mm 3 m/s 747 mmHg 23%
13:00 +37°C° 0 mm 4 m/s 747 mmHg 21%
14:00 +37°C° 0 mm 5 m/s 746 mmHg 20%
15:00 +38°C° 0 mm 6 m/s 746 mmHg 18%
16:00 +36°C° 0 mm 5 m/s 746 mmHg 19%
17:00 +35°C° 0 mm 4 m/s 746 mmHg 20%
18:00 +34°C° 0 mm 4 m/s 746 mmHg 21%
19:00 +34°C° 0 mm 3 m/s 746 mmHg 22%
20:00 +33°C° 0 mm 3 m/s 747 mmHg 23%
21:00 +31°C° 0 mm 3 m/s 747 mmHg 23%
22:00 +31°C° 0 mm 2 m/s 747 mmHg 25%
23:00 +30°C° 0 mm 2 m/s 746 mmHg 26%

Demain, 2 Octobre, Vendredi

Heure Température Précipitation Vent Pression Humidité
00:00 +30°C° 0 mm 2 m/s 746 mmHg 28%
01:00 +29°C° 0 mm 2 m/s 746 mmHg 36%
02:00 +28°C° 0 mm 3 m/s 746 mmHg 44%
03:00 +27°C° 0 mm 3 m/s 745 mmHg 52%
04:00 +27°C° 0 mm 3 m/s 745 mmHg 58%
05:00 +26°C° 0 mm 4 m/s 745 mmHg 64%
06:00 +26°C° 0 mm 4 m/s 745 mmHg 71%
07:00 +27°C° 0 mm 4 m/s 745 mmHg 64%
08:00 +28°C° 0 mm 4 m/s 745 mmHg 58%
09:00 +29°C° 0 mm 4 m/s 745 mmHg 52%
10:00 +32°C° 0 mm 5 m/s 745 mmHg 46%
11:00 +33°C° 0 mm 5 m/s 744 mmHg 39%
12:00 +35°C° 0 mm 5 m/s 743 mmHg 33%
13:00 +35°C° 0 mm 5 m/s 743 mmHg 32%
14:00 +36°C° 0 mm 5 m/s 742 mmHg 30%
15:00 +36°C° 0 mm 4 m/s 742 mmHg 28%
16:00 +36°C° 0 mm 4 m/s 741 mmHg 30%
17:00 +35°C° 0 mm 4 m/s 741 mmHg 31%
18:00 +34°C° 0 mm 4 m/s 741 mmHg 32%
19:00 +34°C° 0 mm 4 m/s 741 mmHg 33%
20:00 +33°C° 0 mm 4 m/s 742 mmHg 33%
21:00 +33°C° 0 mm 4 m/s 742 mmHg 34%
22:00 +32°C° 0 mm 5 m/s 742 mmHg 34%
23:00 +30°C° 0 mm 7 m/s 741 mmHg 33%

Après-demain, 3 Octobre, Samedi

Heure Température Précipitation Vent Pression Humidité
00:00 +29°C° 0 mm 8 m/s 741 mmHg 33%
01:00 +29°C° 0 mm 6 m/s 742 mmHg 35%
02:00 +28°C° 0 mm 7 m/s 742 mmHg 35%
03:00 +27°C° 0 mm 9 m/s 742 mmHg 36%
04:00 +27°C° 0 mm 9 m/s 742 mmHg 38%
05:00 +26°C° 0 mm 9 m/s 742 mmHg 40%
06:00 +26°C° 0 mm 8 m/s 742 mmHg 43%
07:00 +27°C° 0 mm 8 m/s 743 mmHg 40%
08:00 +28°C° 0 mm 8 m/s 744 mmHg 38%
09:00 +31°C° 0 mm 8 m/s 744 mmHg 35%
10:00 +31°C° 0 mm 9 m/s 744 mmHg 34%
11:00 +31°C° 0 mm 10 m/s 744 mmHg 33%
12:00 +31°C° 0 mm 11 m/s 744 mmHg 32%
13:00 +31°C° 0 mm 11 m/s 745 mmHg 31%
14:00 +31°C° 0 mm 11 m/s 745 mmHg 30%
15:00 +29°C° 0 mm 12 m/s 745 mmHg 29%
16:00 +28°C° 0 mm 10 m/s 745 mmHg 28%
17:00 +27°C° 0 mm 9 m/s 746 mmHg 28%
18:00 +26°C° 0 mm 8 m/s 746 mmHg 28%
19:00 +26°C° 0 mm 8 m/s 747 mmHg 28%
20:00 +24°C° 0 mm 8 m/s 748 mmHg 29%
21:00 +23°C° 0 mm 8 m/s 748 mmHg 29%
22:00 +23°C° 0 mm 7 m/s 748 mmHg 30%
23:00 +22°C° 0 mm 7 m/s 748 mmHg 31%

4 Octobre, Dimanche

Heure Température Précipitation Vent Pression Humidité
00:00 +22°C° 0 mm 7 m/s 748 mmHg 31%
01:00 +22°C° 0 mm 7 m/s 748 mmHg 31%
02:00 +21°C° 0 mm 7 m/s 748 mmHg 31%
03:00 +21°C° 0 mm 6 m/s 748 mmHg 30%
04:00 +21°C° 0 mm 6 m/s 748 mmHg 31%
05:00 +20°C° 0 mm 6 m/s 749 mmHg 31%
06:00 +20°C° 0 mm 6 m/s 749 mmHg 32%
07:00 +21°C° 0 mm 6 m/s 749 mmHg 29%
08:00 +23°C° 0 mm 5 m/s 750 mmHg 27%
09:00 +25°C° 0 mm 5 m/s 750 mmHg 24%
10:00 +26°C° 0 mm 5 m/s 749 mmHg 22%
11:00 +28°C° 0 mm 5 m/s 749 mmHg 20%
12:00 +29°C° 0 mm 5 m/s 748 mmHg 18%
13:00 +29°C° 0 mm 4 m/s 748 mmHg 18%
14:00 +29°C° 0 mm 4 m/s 748 mmHg 18%
15:00 +30°C° 0 mm 3 m/s 747 mmHg 19%
16:00 +29°C° 0 mm 3 m/s 747 mmHg 20%
17:00 +28°C° 0 mm 2 m/s 748 mmHg 21%
18:00 +27°C° 0 mm 1 m/s 748 mmHg 23%
19:00 +27°C° 0 mm 1 m/s 748 mmHg 24%
20:00 +27°C° 0 mm 1 m/s 749 mmHg 26%
21:00 +24°C° 0 mm 0 m/s 749 mmHg 27%
22:00 +26°C° 0 mm 1 m/s 749 mmHg 27%
23:00 +26°C° 0 mm 1 m/s 749 mmHg 27%

5 Octobre, Lundi

Heure Température Précipitation Vent Pression Humidité
00:00 +26°C° 0 mm 2 m/s 749 mmHg 26%
01:00 +25°C° 0 mm 3 m/s 749 mmHg 28%
02:00 +25°C° 0 mm 4 m/s 749 mmHg 29%
03:00 +23°C° 0 mm 4 m/s 749 mmHg 30%
04:00 +23°C° 0 mm 5 m/s 749 mmHg 33%
05:00 +22°C° 0 mm 5 m/s 749 mmHg 36%
06:00 +22°C° 0 mm 6 m/s 749 mmHg 39%
07:00 +23°C° 0 mm 6 m/s 750 mmHg 36%
08:00 +26°C° 0 mm 6 m/s 750 mmHg 33%
09:00 +27°C° 0 mm 6 m/s 750 mmHg 30%
10:00 +28°C° 0 mm 6 m/s 750 mmHg 27%
11:00 +29°C° 0 mm 6 m/s 750 mmHg 25%
12:00 +30°C° 0 mm 6 m/s 749 mmHg 22%
13:00 +30°C° 0 mm 6 m/s 749 mmHg 22%
14:00 +30°C° 0 mm 6 m/s 749 mmHg 21%
15:00 +32°C° 0 mm 6 m/s 749 mmHg 21%
16:00 +30°C° 0 mm 5 m/s 749 mmHg 22%
17:00 +29°C° 0 mm 4 m/s 749 mmHg 24%
18:00 +28°C° 0 mm 3 m/s 749 mmHg 25%
19:00 +27°C° 0 mm 3 m/s 749 mmHg 26%
20:00 +27°C° 0 mm 2 m/s 750 mmHg 27%
21:00 +27°C° 0 mm 2 m/s 750 mmHg 28%
22:00 +26°C° 0 mm 2 m/s 750 mmHg 29%
23:00 +26°C° 0 mm 3 m/s 750 mmHg 29%

6 Octobre, Mardi

Heure Température Précipitation Vent Pression Humidité
00:00 +25°C° 0 mm 3 m/s 750 mmHg 30%
01:00 +25°C° 0 mm 3 m/s 750 mmHg 33%
02:00 +23°C° 0 mm 4 m/s 750 mmHg 36%
03:00 +23°C° 0 mm 5 m/s 750 mmHg 39%
04:00 +22°C° 0 mm 5 m/s 750 mmHg 41%
05:00 +22°C° 0 mm 6 m/s 750 mmHg 44%
06:00 +22°C° 0 mm 6 m/s 751 mmHg 46%
07:00 +23°C° 0 mm 6 m/s 751 mmHg 42%
08:00 +26°C° 0 mm 5 m/s 751 mmHg 38%
09:00 +27°C° 0 mm 5 m/s 751 mmHg 33%
10:00 +28°C° 0 mm 4 m/s 751 mmHg 30%
11:00 +29°C° 0 mm 4 m/s 751 mmHg 27%
12:00 +30°C° 0 mm 3 m/s 750 mmHg 23%
13:00 +31°C° 0 mm 3 m/s 750 mmHg 22%
14:00 +31°C° 0 mm 3 m/s 749 mmHg 21%
15:00 +32°C° 0 mm 4 m/s 749 mmHg 19%
16:00 +30°C° 0 mm 4 m/s 749 mmHg 21%
17:00 +29°C° 0 mm 4 m/s 749 mmHg 23%
18:00 +28°C° 0 mm 4 m/s 749 mmHg 25%
19:00 +28°C° 0 mm 3 m/s 750 mmHg 27%
20:00 +27°C° 0 mm 2 m/s 750 mmHg 28%
21:00 +26°C° 0 mm 2 m/s 750 mmHg 29%
22:00 +26°C° 0 mm 2 m/s 750 mmHg 30%
23:00 +25°C° 0 mm 1 m/s 750 mmHg 31%
Voir plus

We Need Your Consent

Meteoprog and our Service Providers may store and access personal data such as cookies, device identifiers or other similar technologies on your device and process such data to personalise content and ads, as well as provide social media features and to analyse the traffic.

  • Store and/or access information on your device

    Cookies, device identifiers or other information can be stored or accessed on your device for the purposes indicated above.

  • Personalised ads and content, ad and content measurement, audience insights, and products development

    Ads and content can be personalised based on a profile. More data can be added to better personalise ads and content. Ad and content performance can be measured. Insights about the audience who saw the ads and content can be derived. Such data can be used to develop or improve user’s experience, systems and software.

By clicking ‘I Agree’ you will allow the use of indicated cookies, device identifiers, web beacons or other similar technologies. Your settings can be changed in the browser on your device.

For certain purposes, legitimate interests may be relied on, rather than consent. You can read more about this in our Privacy and Cookie Policy.